Weather in Khiytola

Russia / Republic of Karelia     61°14′18″N   29°41′25″E
temp.,
°C
wind,
m/s
gust,
m/s
humid.,
%
clouds,
%
prec.,
mm/h
press.,
hPa
HPBL,
m
1 march, mon
mon100:00−2wsw369755 0.0 1018137
03:00+2w4109971 0.0 1019459
06:000w4119381 0.0 1017375
09:00+1w4119188 0.0 1016473
12:00+2w51391100 0.0 1014529
15:00+4w61582100 0.0 1013828
18:00+3w51484100 0.0 1011742
21:00+2wnw41288100 0.0 1010745
2 march, tue
tue200:000w5128756 0.0 1010566
03:00−1w5128727 0.0 1010495
06:00−1w513860 0.0 1009526
09:00−2wnw412862 0.0 1010590
12:00+1nw511790 0.0 1011805
15:00+2nw511770 0.0 10131098
18:000nw312830 0.0 1015535
21:00−1wnw312870 0.0 1017468
3 march, wed
wed300:00−2wnw412850 0.0 1016439
03:00−2wnw412860 0.0 1016486
06:00−2wnw413850 0.0 1015547
09:00−2wnw411880 0.0 1015460
12:000w498513 0.0 1013565
15:00+1w5118357 0.0 1010597
18:00+1wsw61397100 0.7 1005992
21:00+2w61489100 0.9 1000998
4 march, thu
thu400:00+1wnw51287100 0.4 998787
03:00−2nw4119068 0.5 999565
06:00−3nnw5108196 0.0 999821
09:00−4nnw5119297 0.2 999735
12:00−4nnw5108097 0.1 1001800
15:00−3nnw5107199 0.1 10031131
18:00−4nnw387749 0.0 1004696
21:00−6nnw398427 0.0 1006469
5 march, fri
fri500:00−7nw278811 0.0 1006344
03:00−8nw378932 0.0 1007329
06:00−9nw38890 0.0 1008346
09:00−9nw37880 0.0 1009396
12:00−7nnw247991 0.1 1011604
15:00−5nnw347695 0.1 1013748
18:00−6nnw3783100 0.0 1014616
21:00−8n268883 0.0 1016194